User: anonymous   Login
Location: Saint-Denis
(20.8800°S, 55.4481°E)
Time: 10:19:16
(UTC+04:00)
Language:

MOZHAYETS 4 - Orbit

View from above orbital plane
View from above orbital plane
View from above satellite
View from above satellite

Ground track
Ground track

The orbit data is extracted from the following two-line orbital elements,

1 27939U 03042A   24105.84978532  .00002442  00000-0  41927-3 0  9995
2 27939  98.2830 261.0897 0011059 258.6118 248.5214 14.69603461 98971
Epoch (UTC): 14 April 2024 20:23:41
Eccentricity: 0.0011059
inclination: 98.2830°
perigee height: 654 km
apogee height: 670 km
right ascension of ascending node: 261.0897°
argument of perigee: 258.6118°
revolutions per day: 14.69603461
mean anomaly at epoch: 248.5214°
orbit number at epoch: 9897

The dashed part of the orbit path shows where the satellite is in the earth's shadow,  

DLR